TimeCDT,TemperatureF,Dew PointF,Humidity,Sea Level PressureIn,VisibilityMPH,Wind Direction,Wind SpeedMPH,Gust SpeedMPH,PrecipitationIn,Events,Conditions,WindDirDegrees,DateUTC
12:15 AM,68.0,66.2,94,30.14,7.0,Calm,Calm,-,N/A,Rain,Light Rain,0,2013-08-18 05:15:00
12:35 AM,68.0,66.2,94,30.14,10.0,Calm,Calm,-,N/A,,Overcast,0,2013-08-18 05:35:00
12:55 AM,68.0,66.2,94,30.13,7.0,Calm,Calm,-,N/A,,Overcast,0,2013-08-18 05:55:00
1:15 AM,68.0,66.2,94,30.12,5.0,Calm,Calm,-,N/A,,Overcast,0,2013-08-18 06:15:00
1:35 AM,68.0,66.2,94,30.12,5.0,Calm,Calm,-,0.01,Rain,Rain,0,2013-08-18 06:35:00
1:55 AM,68.0,66.2,94,30.12,5.0,Calm,Calm,-,0.02,Rain,Light Rain,0,2013-08-18 06:55:00
2:15 AM,68.0,66.2,94,30.11,5.0,NNW,3.5,-,0.01,Rain,Light Rain,340,2013-08-18 07:15:00
2:35 AM,68.0,66.2,94,30.11,7.0,Calm,Calm,-,0.01,,Mostly Cloudy,0,2013-08-18 07:35:00
2:55 AM,68.0,66.2,94,30.11,7.0,Calm,Calm,-,0.01,,Scattered Clouds,0,2013-08-18 07:55:00
3:15 AM,68.0,66.2,94,30.10,5.0,Calm,Calm,-,N/A,,Scattered Clouds,0,2013-08-18 08:15:00
3:35 AM,66.2,66.2,100,30.10,3.0,Calm,Calm,-,N/A,,Scattered Clouds,0,2013-08-18 08:35:00
3:55 AM,66.2,66.2,100,30.10,3.0,Calm,Calm,-,N/A,,Clear,0,2013-08-18 08:55:00
4:15 AM,66.2,66.2,100,30.10,3.0,Calm,Calm,-,N/A,,Clear,0,2013-08-18 09:15:00
4:35 AM,66.2,66.2,100,30.11,2.0,Calm,Calm,-,N/A,,Overcast,0,2013-08-18 09:35:00
4:55 AM,66.2,66.2,100,30.11,2.0,Calm,Calm,-,N/A,,Mostly Cloudy,0,2013-08-18 09:55:00
5:15 AM,66.2,66.2,100,30.12,1.5,Calm,Calm,-,N/A,,Scattered Clouds,0,2013-08-18 10:15:00
5:35 AM,66.2,66.2,100,30.13,2.0,Calm,Calm,-,N/A,,Overcast,0,2013-08-18 10:35:00
5:55 AM,66.2,66.2,100,30.13,2.5,Calm,Calm,-,N/A,,Overcast,0,2013-08-18 10:55:00
6:15 AM,66.2,66.2,100,30.14,2.5,Calm,Calm,-,N/A,,Overcast,0,2013-08-18 11:15:00
7:52 AM,68.0,68.0,100,30.16,3.0,NNW,5.8,-,N/A,,Mostly Cloudy,330,2013-08-18 12:52:00
8:55 AM,69.8,68.0,94,30.16,7.0,North,5.8,-,N/A,,Mostly Cloudy,10,2013-08-18 13:55:00
9:52 AM,71.6,66.2,83,30.17,7.0,NNE,5.8,-,N/A,,Mostly Cloudy,20,2013-08-18 14:52:00
10:55 AM,73.4,66.2,78,30.17,10.0,NNE,5.8,-,N/A,,Mostly Cloudy,30,2013-08-18 15:55:00
11:55 AM,77.0,64.4,65,30.17,10.0,NNE,5.8,-,N/A,,Mostly Cloudy,30,2013-08-18 16:55:00
12:55 PM,78.8,66.2,65,30.15,15.0,NNE,5.8,-,N/A,,Mostly Cloudy,20,2013-08-18 17:55:00
2:55 PM,82.4,62.6,51,30.12,20.0,ENE,6.9,-,N/A,,Scattered Clouds,60,2013-08-18 19:55:00
3:55 PM,82.4,62.6,51,30.11,20.0,East,8.1,-,N/A,,Scattered Clouds,90,2013-08-18 20:55:00
4:55 PM,82.4,62.6,51,30.10,20.0,East,4.6,-,N/A,,Scattered Clouds,80,2013-08-18 21:55:00
5:55 PM,82.4,62.6,51,30.10,20.0,East,6.9,-,N/A,,Scattered Clouds,80,2013-08-18 22:55:00
6:35 PM,80.6,62.6,54,30.09,10.0,East,4.6,-,N/A,,Clear,80,2013-08-18 23:35:00
6:55 PM,80.6,62.6,54,30.09,10.0,Calm,Calm,-,N/A,,Clear,0,2013-08-18 23:55:00
7:15 PM,78.8,64.4,61,30.10,10.0,Calm,Calm,-,N/A,,Clear,0,2013-08-19 00:15:00
7:35 PM,75.2,68.0,78,30.10,10.0,Calm,Calm,-,N/A,,Clear,0,2013-08-19 00:35:00
7:55 PM,73.4,68.0,83,30.11,10.0,Calm,Calm,-,N/A,,Clear,0,2013-08-19 00:55:00
8:15 PM,71.6,68.0,88,30.11,10.0,Calm,Calm,-,N/A,,Clear,0,2013-08-19 01:15:00
8:35 PM,71.6,66.2,83,30.12,10.0,Calm,Calm,-,N/A,,Clear,0,2013-08-19 01:35:00
8:55 PM,73.4,66.2,78,30.12,10.0,Calm,Calm,-,N/A,,Clear,0,2013-08-19 01:55:00
9:15 PM,71.6,68.0,88,30.12,10.0,Calm,Calm,-,N/A,,Clear,0,2013-08-19 02:15:00
9:35 PM,71.6,68.0,88,30.13,10.0,Calm,Calm,-,N/A,,Clear,0,2013-08-19 02:35:00
9:55 PM,69.8,68.0,94,30.13,10.0,Calm,Calm,-,N/A,,Clear,0,2013-08-19 02:55:00
10:15 PM,69.8,68.0,94,30.13,7.0,Calm,Calm,-,N/A,,Clear,0,2013-08-19 03:15:00
10:35 PM,68.0,68.0,100,30.13,5.0,Calm,Calm,-,N/A,,Clear,0,2013-08-19 03:35:00
10:55 PM,68.0,68.0,100,30.13,7.0,Calm,Calm,-,N/A,,Clear,0,2013-08-19 03:55:00
11:15 PM,69.8,68.0,94,30.13,5.0,Calm,Calm,-,N/A,,Clear,0,2013-08-19 04:15:00
11:35 PM,68.0,66.2,94,30.13,2.5,Calm,Calm,-,N/A,,Clear,0,2013-08-19 04:35:00
11:55 PM,68.0,68.0,100,30.13,4.0,Calm,Calm,-,N/A,,Clear,0,2013-08-19 04:55:00